| time (UTC) | temp C | wind direction | speed KPH | gust KPH | rain 1hr cm | rain 24hr cm | rain mn cm | humidity % | barometer mb |
| 20260906120021 | 22 | 356 | 0.0 | 1.6 | 0.00 | 0.08 | 0.00 | 94 | 1013.3 |
| 20260906114533 | 22 | 20 | 0.0 | 4.8 | 0.00 | 0.08 | 0.00 | 95 | 1013.2 |
| 20260906113017 | 22 | 21 | 0.0 | 0.0 | 0.00 | 0.08 | 0.00 | 96 | 1013.0 |
| 20260906111516 | 22 | 359 | 0.0 | 3.2 | 0.00 | 0.08 | 0.00 | 96 | 1012.9 |
| 20260906110014 | 22 | 12 | 0.0 | 1.6 | 0.00 | 0.08 | 0.00 | 96 | 1012.5 |
| 20260906104516 | 22 | 6 | 0.0 | 6.4 | 0.00 | 0.08 | 0.00 | 96 | 1012.4 |
| 20260906103011 | 22 | 11 | 0.0 | 1.6 | 0.00 | 0.08 | 0.00 | 96 | 1012.3 |
| 20260906101511 | 22 | 15 | 0.0 | 0.0 | 0.00 | 0.08 | 0.00 | 96 | 1012.3 |
| 20260906100012 | 22 | 359 | 0.0 | 0.0 | 0.00 | 0.08 | 0.00 | 96 | 1012.1 |
| 20260906094528 | 22 | 14 | 0.0 | 0.0 | 0.00 | 0.08 | 0.00 | 97 | 1011.8 |
| 20260906093017 | 22 | 354 | 0.0 | 3.2 | 0.00 | 0.08 | 0.00 | 97 | 1011.5 |
| 20260906091508 | 22 | 349 | 0.0 | 1.6 | 0.00 | 0.08 | 0.00 | 97 | 1011.4 |
| 20260906090011 | 22 | 356 | 0.0 | 1.6 | 0.00 | 0.08 | 0.00 | 97 | 1011.4 |
| 20260906084508 | 22 | 27 | 0.0 | 1.6 | 0.00 | 0.08 | 0.00 | 97 | 1011.4 |
| 20260906083007 | 22 | 4 | 0.0 | 3.2 | 0.00 | 0.08 | 0.00 | 97 | 1011.3 |
| 20260906081512 | 21 | 10 | 0.0 | 1.6 | 0.00 | 0.08 | 0.00 | 97 | 1011.3 |
| 20260906080009 | 21 | 16 | 0.0 | 0.0 | 0.00 | 0.08 | 0.00 | 97 | 1011.0 |
| 20260906074505 | 21 | 16 | 0.0 | 0.0 | 0.00 | 0.08 | 0.00 | 97 | 1010.9 |
| 20260906073005 | 21 | 16 | 0.0 | 0.0 | 0.00 | 0.08 | 0.00 | 96 | 1010.6 |
| 20260906071503 | 21 | 16 | 0.0 | 0.0 | 0.00 | 0.08 | 0.00 | 96 | 1010.7 |
| 20260906070002 | 21 | 16 | 0.0 | 0.0 | 0.00 | 0.08 | 0.00 | 96 | 1010.8 |
| 20260906064601 | 21 | 16 | 0.0 | 0.0 | 0.00 | 0.08 | 0.00 | 96 | 1010.8 |
| 20260906063059 | 21 | 16 | 0.0 | 0.0 | 0.00 | 0.08 | 0.00 | 96 | 1011.2 |
| 20260906061558 | 22 | 16 | 0.0 | 0.0 | 0.00 | 0.08 | 0.00 | 96 | 1011.1 |
| 20260906060056 | 22 | 16 | 0.0 | 0.0 | 0.00 | 0.08 | 0.00 | 96 | 1011.1 |
| 20260906054600 | 22 | 16 | 0.0 | 0.0 | 0.00 | 0.08 | 0.00 | 96 | 1011.3 |
| 20260906053051 | 22 | 16 | 0.0 | 0.0 | 0.00 | 0.08 | 0.00 | 95 | 1011.5 |
| 20260906051601 | 22 | 16 | 0.0 | 0.0 | 0.00 | 0.08 | 0.00 | 95 | 1011.7 |
| 20260906050056 | 22 | 16 | 0.0 | 0.0 | 0.00 | 0.08 | 0.00 | 95 | 1011.8 |
| 20260906044553 | 22 | 16 | 0.0 | 0.0 | 0.00 | 0.08 | 0.00 | 95 | 1011.9 |
| 20260906043043 | 22 | 16 | 0.0 | 0.0 | 0.00 | 0.08 | 0.00 | 95 | 1012.0 |
| 20260906041541 | 22 | 16 | 0.0 | 0.0 | 0.00 | 0.08 | 0.00 | 94 | 1012.1 |
| 20260906040039 | 23 | 16 | 0.0 | 0.0 | 0.00 | 0.08 | 0.00 | 94 | 1012.1 |
| 20260906034538 | 23 | 354 | 0.0 | 0.0 | 0.00 | 0.08 | 0.08 | 93 | 1012.2 |
| 20260906033045 | 23 | 353 | 0.0 | 0.0 | 0.00 | 0.08 | 0.08 | 93 | 1012.2 |
| 20260906031540 | 23 | 353 | 0.0 | 0.0 | 0.00 | 0.08 | 0.08 | 93 | 1012.0 |
| 20260906030037 | 23 | 2 | 0.0 | 0.0 | 0.00 | 0.08 | 0.08 | 93 | 1011.8 |
| 20260906024546 | 23 | 29 | 0.0 | 0.0 | 0.00 | 0.08 | 0.08 | 94 | 1011.8 |
| 20260906023036 | 23 | 10 | 0.0 | 0.0 | 0.00 | 0.08 | 0.08 | 94 | 1011.9 |
| 20260906021536 | 23 | 347 | 0.0 | 0.0 | 0.00 | 0.08 | 0.08 | 95 | 1011.9 |
| 20260906020035 | 23 | 342 | 0.0 | 0.0 | 0.00 | 0.08 | 0.08 | 95 | 1011.8 |
| 20260906014549 | 23 | 342 | 0.0 | 0.0 | 0.00 | 0.08 | 0.08 | 95 | 1011.9 |
| 20260906013043 | 23 | 342 | 0.0 | 0.0 | 0.00 | 0.08 | 0.08 | 95 | 1011.7 |
| 20260906011534 | 23 | 342 | 0.0 | 0.0 | 0.00 | 0.08 | 0.08 | 95 | 1011.6 |
| 20260906010034 | 23 | 342 | 0.0 | 0.0 | 0.00 | 0.08 | 0.08 | 95 | 1011.4 |
| 20260906004534 | 23 | 342 | 0.0 | 0.0 | 0.00 | 0.08 | 0.08 | 95 | 1011.4 |
| 20260906003034 | 23 | 342 | 0.0 | 0.0 | 0.00 | 0.08 | 0.08 | 95 | 1011.4 |
| 20260906001533 | 23 | 342 | 0.0 | 0.0 | 0.00 | 0.08 | 0.08 | 95 | 1011.3 |
| 20260906000035 | 23 | 342 | 0.0 | 0.0 | 0.00 | 0.08 | 0.08 | 95 | 1011.2 |
| 20260905234535 | 23 | 342 | 0.0 | 0.0 | 0.00 | 0.08 | 0.08 | 95 | 1011.0 |
| 20260905233031 | 24 | 342 | 0.0 | 0.0 | 0.00 | 0.08 | 0.08 | 95 | 1010.7 |
| 20260905231530 | 24 | 342 | 0.0 | 0.0 | 0.00 | 0.08 | 0.08 | 95 | 1010.5 |
| 20260905230029 | 24 | 342 | 0.0 | 0.0 | 0.00 | 0.08 | 0.08 | 96 | 1009.9 |
| 20260905224528 | 23 | 342 | 0.0 | 0.0 | 0.00 | 0.08 | 0.08 | 95 | 1009.6 |
| 20260905223028 | 23 | 342 | 0.0 | 0.0 | 0.00 | 0.08 | 0.08 | 96 | 1009.8 |
| 20260905221527 | 23 | 342 | 0.0 | 0.0 | 0.00 | 0.08 | 0.08 | 95 | 1010.5 |
| 20260905220028 | 23 | 342 | 0.0 | 0.0 | 0.03 | 0.08 | 0.08 | 95 | 1010.7 |
| 20260905214528 | 23 | 342 | 0.0 | 0.0 | 0.03 | 0.08 | 0.08 | 94 | 1010.6 |
| 20260905213025 | 23 | 342 | 0.0 | 0.0 | 0.05 | 0.08 | 0.08 | 94 | 1010.0 |
| 20260905211535 | 23 | 342 | 0.0 | 0.0 | 0.05 | 0.08 | 0.08 | 93 | 1010.2 |
| 20260905210024 | 23 | 342 | 0.0 | 0.0 | 0.05 | 0.05 | 0.05 | 92 | 1010.1 |
| 20260905204528 | 24 | 343 | 0.0 | 0.0 | 0.05 | 0.05 | 0.05 | 91 | 1010.0 |
| 20260905203023 | 25 | 334 | 0.0 | 1.6 | 0.03 | 0.03 | 0.03 | 87 | 1009.9 |
| 20260905201523 | 26 | 330 | 0.0 | 9.7 | 0.03 | 0.03 | 0.03 | 79 | 1009.8 |
| 20260905200022 | 27 | 4 | 1.6 | 16.1 | 0.00 | 0.00 | 0.00 | 68 | 1010.5 |
| 20260905194521 | 29 | 306 | 4.8 | 19.3 | 0.00 | 0.00 | 0.00 | 65 | 1010.7 |
| 20260905193019 | 33 | 79 | 8.0 | 24.1 | 0.00 | 0.00 | 0.00 | 52 | 1010.5 |
| 20260905191518 | 35 | 334 | 0.0 | 8.0 | 0.00 | 0.00 | 0.00 | 49 | 1009.4 |
| 20260905190017 | 35 | 319 | 0.0 | 9.7 | 0.00 | 0.00 | 0.00 | 48 | 1009.3 |
| 20260905184517 | 35 | 282 | 0.0 | 1.6 | 0.00 | 0.00 | 0.00 | 45 | 1009.5 |
| 20260905183013 | 35 | 356 | 0.0 | 6.4 | 0.00 | 0.00 | 0.00 | 45 | 1009.6 |
| 20260905181510 | 35 | 6 | 0.0 | 3.2 | 0.00 | 0.00 | 0.00 | 47 | 1009.9 |
| 20260905180009 | 36 | 304 | 0.0 | 3.2 | 0.00 | 0.00 | 0.00 | 46 | 1010.2 |
| 20260905174503 | 35 | 280 | 0.0 | 3.2 | 0.00 | 0.00 | 0.00 | 47 | 1010.8 |
| 20260905173002 | 36 | 17 | 0.0 | 4.8 | 0.00 | 0.00 | 0.00 | 48 | 1011.3 |
| 20260905171559 | 36 | 30 | 0.0 | 12.9 | 0.00 | 0.00 | 0.00 | 46 | 1011.4 |
| 20260905170054 | 35 | 1 | 0.0 | 6.4 | 0.00 | 0.00 | 0.00 | 51 | 1011.7 |
| 20260905164550 | 35 | 286 | 0.0 | 1.6 | 0.00 | 0.00 | 0.00 | 51 | 1011.8 |
| 20260905163048 | 34 | 6 | 3.2 | 8.0 | 0.00 | 0.00 | 0.00 | 52 | 1011.8 |
| 20260905161558 | 34 | 297 | 0.0 | 6.4 | 0.00 | 0.00 | 0.00 | 55 | 1012.1 |
| 20260905160045 | 34 | 4 | 0.0 | 8.0 | 0.00 | 0.00 | 0.00 | 55 | 1012.4 |
| 20260905154541 | 33 | 307 | 0.0 | 8.0 | 0.00 | 0.00 | 0.00 | 57 | 1012.6 |
| 20260905153036 | 32 | 285 | 0.0 | 3.2 | 0.00 | 0.00 | 0.00 | 61 | 1012.6 |
| 20260905151535 | 32 | 279 | 0.0 | 3.2 | 0.00 | 0.00 | 0.00 | 62 | 1012.7 |
| 20260905150031 | 31 | 224 | 0.0 | 1.6 | 0.00 | 0.00 | 0.00 | 67 | 1012.7 |
| 20260905144528 | 31 | 227 | 0.0 | 1.6 | 0.00 | 0.00 | 0.00 | 67 | 1012.8 |
| 20260905143026 | 30 | 227 | 0.0 | 3.2 | 0.00 | 0.00 | 0.00 | 70 | 1012.7 |
| 20260905141522 | 29 | 224 | 0.0 | 0.0 | 0.00 | 0.00 | 0.00 | 72 | 1012.7 |
| 20260905140018 | 28 | 225 | 0.0 | 1.6 | 0.00 | 0.00 | 0.00 | 74 | 1012.6 |
| 20260905134514 | 28 | 224 | 0.0 | 1.6 | 0.00 | 0.00 | 0.00 | 79 | 1012.6 |
| 20260905133010 | 27 | 226 | 0.0 | 3.2 | 0.00 | 0.00 | 0.00 | 82 | 1012.6 |
| 20260905131506 | 26 | 221 | 0.0 | 0.0 | 0.00 | 0.00 | 0.00 | 86 | 1012.7 |
| 20260905130004 | 25 | 221 | 0.0 | 0.0 | 0.00 | 0.00 | 0.00 | 88 | 1012.7 |
| 20260905124503 | 25 | 222 | 0.0 | 0.0 | 0.00 | 0.00 | 0.00 | 89 | 1012.8 |
| 20260905123007 | 25 | 222 | 0.0 | 1.6 | 0.00 | 0.00 | 0.00 | 91 | 1012.8 |
| 20260905121501 | 24 | 221 | 0.0 | 0.0 | 0.00 | 0.00 | 0.00 | 92 | 1012.7 |